Regional Weather Roundup
Issued by NWS

Home | Current Version | Previous Version | Text Only | Print | Product List | Glossary Off
Versions: 1 2 3 4 5 6 7 8 9 10 11 12 13 14 15 16 17 18 19 20 21 22 23 24 25 26 27 28 29 30 31 32 33 34 35 36 37 38 39 40 41 42 43 44 45 46 47 48 49 50

232
ASUS43 KFSD 291802
RWRSD

WEATHER ROUNDUP FOR SOUTH DAKOTA
NATIONAL WEATHER SERVICE SIOUX FALLS SD
100 PM CDT MON AUG 29 2016

NOTE: "FAIR" INDICATES FEW OR NO CLOUDS BELOW 12,000 FEET WITH NO
SIGNIFICANT WEATHER AND/OR OBSTRUCTIONS TO VISIBILITY.


SDZ001>005-009-010-012>017-291900-
NORTHWEST AND NORTH CENTRAL SOUTH DAKOTA

CITY           SKY/WX    TMP DP  RH WIND       PRES   REMARKS
BUFFALO          N/A     74  52  46 E10       30.25S
FAITH            N/A     81  54  39 NE17G29   30.24F
MOBRIDGE       SUNNY     82  57  42 N16       30.18F
$$

SDZ012>016-024>037-041>051-057-063-072>074-291900-
SOUTHWEST AND SOUTH CENTRAL SOUTH DAKOTA

CITY           SKY/WX    TMP DP  RH WIND       PRES   REMARKS
RAPID CTY ARPT SUNNY     76  57  51 N16       30.28F
PIERRE         SUNNY     86  64  47 N14       30.13F
CUSTER         SUNNY     73  49  42 NE14G28   30.39S
ELLSWORTH AFB  SUNNY     76  56  50 N12       30.28F
PHILIP         SUNNY     81  65  58 NE12      30.19F
PINE RIDGE     SUNNY     78  58  49 N7        30.25S
WINNER         FAIR      91  64  40 CALM      30.15F
$$

SDZ004>011-016>023-039-040-291900-
NORTHEAST SOUTH DAKOTA

CITY           SKY/WX    TMP DP  RH WIND       PRES   REMARKS
ABERDEEN       MOSUNNY   80  67  64 N6        30.15F
WATERTOWN      SUNNY     83  71  67 S16G23    30.15F
$$

SDZ017-020-022-023-036>040-048>070-291900-
SOUTHEAST SOUTH DAKOTA

CITY           SKY/WX    TMP DP  RH WIND       PRES   REMARKS
SIOUX FALLS    PTSUNNY   82  70  66 SE13      30.20F
HURON          SUNNY     85  68  56 SE8       30.13F
CHAMBERLAIN    SUNNY     89  68  48 SW7       30.14S
MITCHELL       MOSUNNY   88  70  55 S9        30.15S
YANKTON        MOSUNNY   79  64  61 SE10      30.18S
$$

ABBREVIATIONS USED IN REMARKS
   TC - TEMPERATURE IN CELSIUS
  WCI - WIND CHILL INDEX
   HX - HEAT INDEX
  VSB - VISIBILITY





USA.gov is the U.S. government's official web portal to all federal, state and local government web resources and services.